[Iaude] MPEC V180: 2023 VD6 [a=2.42,e=0.68,i=2.0,H=21.6,PHA]
    mpec at marsden.cfa.harvard.edu 
    mpec at marsden.cfa.harvard.edu
       
    Fri Nov 10 16:05:01 EST 2023
    
    
  
M.P.E.C. 2023-V180                            Issued 2023 November 10, 21:03 UT
     The Minor Planet Electronic Circulars contain information on unusual
         minor planets, routine data on comets and natural satellites,
         and occasional editorial announcements.  They are published
    on behalf of Division F of the International Astronomical Union by the
          Minor Planet Center, Smithsonian Astrophysical Observatory,
                          Cambridge, MA 02138, U.S.A.
			  
             Prepared using the Tamkin Foundation Computer Network
                              MPC at CFA.HARVARD.EDU
            URL https://www.minorplanetcenter.net/    ISSN 1523-6714
                                    2023 VD6                                    
Observations:
     K23V06D  C2023 10 16.46540604 22 18.271+17 51 26.39         23.39GVEV180F51
     K23V06D  C2023 10 16.47775904 22 18.773+17 51 26.26         22.76GVEV180F51
     K23V06D  C2023 10 16.49016004 22 19.233+17 51 25.78         22.41GVEV180F51
     K23V06D  C2023 10 16.50265804 22 19.744+17 51 25.60         23.09GVEV180F51
     K23V06D  C2023 10 22.42759304 26 12.668+17 46 56.43         22.48GVEV180F52
     K23V06D  C2023 10 22.44036404 26 13.069+17 46 55.85         22.57GVEV180F52
     K23V06D  C2023 10 22.45318204 26 13.444+17 46 55.23         22.70GVEV180F52
     K23V06D  C2023 10 22.46601304 26 13.845+17 46 54.54         22.99GVEV180F52
     K23V06D  C2023 11 04.59097404 31 34.050+17 23 07.38         21.49GVEV180F51
     K23V06D  C2023 11 04.60384404 31 34.129+17 23 05.02         21.72GVEV180F51
     K23V06D  C2023 11 04.61664804 31 34.235+17 23 02.86         21.36GVEV180F51
     K23V06D* C2023 11 08.55587804 32 05.575+17 11 29.17         21.39wXEV180F51
     K23V06D  C2023 11 08.56880304 32 05.519+17 11 26.47         21.45wXEV180F51
     K23V06D  C2023 11 08.58170104 32 05.479+17 11 23.89         21.44wXEV180F51
     K23V06D  C2023 11 08.59893904 32 05.421+17 11 20.18         21.55wXEV180F51
     K23V06D KC2023 11 09.41051604 32 07.732+17 08 36.20         20.97GVEV180I52
     K23V06D KC2023 11 09.42502904 32 07.616+17 08 32.89         21.44GVEV180I52
     K23V06D KC2023 11 09.46635104 32 07.436+17 08 23.50         21.00GVEV180I52
     K23V06D KC2023 11 10.37200 04 32 08.06 +17 05 16.9          21.9 RVEV180691
     K23V06D KC2023 11 10.37212204 32 08.034+17 05 16.40         21.12GVEV180I52
     K23V06D KC2023 11 10.38884904 32 07.894+17 05 12.66         21.17GVEV180I52
     K23V06D KC2023 11 10.39513 04 32 07.85 +17 05 11.9          21.4 RVEV180691
     K23V06D KC2023 11 10.40784304 32 07.735+17 05 08.41         21.57GVEV180I52
     K23V06D KC2023 11 10.41812 04 32 07.67 +17 05 05.9          21.6 RVEV180691
     K23V06D KC2023 11 10.42164704 32 07.652+17 05 05.21         20.70GVEV180I52
Observer details:
691 Steward Observatory, Kitt Peak-Spacewatch.  Observer T. H. Bressi.  0.9-m
    f/3 reflector + CCD.
F51 Pan-STARRS 1, Haleakala.  Observers J. Bulger, T. Lowe, P. Minguez, A.
    Schultz, I. Smith.  Measurers K. Chambers, T. de Boer, J. Fairlamb, H.
    Gao, M. Huber, C.-C. Lin, E. Magnier, Y. Ramanjooloo, R. Wainscoat, R.
    Weryk.  1.8-m Ritchey-Chretien + CCD.
F52 Pan-STARRS 2, Haleakala.  Observers J. Bulger, T. Lowe, P. Minguez, A.
    Schultz, I. Smith.  Measurers K. Chambers, T. de Boer, J. Fairlamb, H.
    Gao, M. Huber, C.-C. Lin, E. Magnier, Y. Ramanjooloo, R. Wainscoat, R.
    Weryk.  1.8-m Ritchey-Chretien + CCD.
I52 Steward Observatory, Mt. Lemmon Station.  Observer H. Groeller.  Measurers
    E. C. Beshore, D. Fay, J. B. Fazekas, D. C. Fuls, A. R. Gibbs, A. D.
    Grauer, H. Groeller, J. K. Hogan, R. A. Kowalski, S. M. Larson, G. J.
    Leonard, D. Rankin, R. L. Seaman, F. C. Shelly, K. W. Wierzchos.  1.0-m
    prime focus + CCD.
Orbital elements:
2023 VD6                                            PHA, Earth MOID = 0.0079 AU
Epoch 2023 Sept. 13.0 TT = JDT 2460200.5                Bell                    
M 323.62065              (2000.0)            P               Q                  
n   0.26126767     Peri.   49.14428     -0.86809320     -0.49520765             
a   2.4233284      Node   101.14624     +0.44423917     -0.80593136             
e   0.6820673      Incl.    2.00946     +0.22150790     -0.32441335             
P   3.77           H   21.62          G   0.15           U   6                  
Residuals in seconds of arc
231016 F51  0.1-  0.1+    231104 F51  0.1-  0.1-    231110 691  0.1-  0.4+
231016 F51  0.2+  0.2+    231104 F51  0.2+  0.1+    231110 I52  0.2-  0.1+
231016 F51  0.2-  0.1-    231108 F51  0.0   0.1-    231110 I52  0.2-  0.0
231016 F51  0.2+  0.0     231108 F51  0.1-  0.1-    231110 691  0.3-  0.4+
231022 F52  0.0   0.1-    231108 F51  0.0   0.0     231110 I52  0.1-  0.1-
231022 F52  0.1+  0.0     231108 F51  0.0   0.0     231110 691  0.0   0.5-
231022 F52  0.2-  0.0     231109 I52  0.3+  0.4+    231110 I52  0.3+  0.2-
231022 F52  0.0   0.0     231109 I52  0.2-  0.2+
231104 F51  0.0   0.0     231109 I52  0.3+  0.2-
Ephemeris:
2023 VD6                 a,e,i = 2.42, 0.68, 2                   q = 0.7705
Date    TT    R. A. (2000) Decl.     Delta      r    Elong.  Phase     V
2023 10 11    04 18 03.6 +17 52 28   0.8735  1.7058   131.2    26.1    23.7
...
2023 10 26    04 28 08.4 +17 42 30   0.6418  1.5584   143.7    22.2    22.7
...
2023 11 03    04 31 12.4 +17 27 11   0.5301  1.4779   150.9    19.1    22.1
...
2023 11 09    04 32 07.3 +17 10 04   0.4519  1.4168   156.6    16.2    21.5
2023 11 10    04 32 08.4 +17 06 40   0.4394  1.4066   157.5    15.6    21.4
2023 11 11    04 32 06.9 +17 03 06   0.4270  1.3963   158.5    15.1    21.3
...
2023 11 17    04 31 01.0 +16 37 47   0.3553  1.3347   164.5    11.4    20.7
...
2023 11 25    04 26 29.4 +15 50 14   0.2670  1.2523   172.1     6.2    19.7
...
2023 12 10    03 58 22.2 +12 23 51   0.1207  1.0998   161.1    16.9    18.1
M. P. C. Staff               (C) Copyright 2023 MPC           M.P.E.C. 2023-V180
    
    
More information about the Iaude
mailing list